BROVEDANI SPA
Address: VIA GEMONA 3
BROVEDANI SPA's Shipments Over Time
Supply Ratings
Shipment Reliability and Frequency Volume of Goods
Avg. Shipments per Month: 2.00 Average TEU per month: 3.33
Active Months: 11 Average TEU per Shipment: 1.43
Shipment Frequency Std. Dev.: 1.36
Shipments By Companies
Company Name Shipments
CUMMINS SCANIA XPI RL372 89 shipments
CUMMINS JUAREZ FUEL SYSTEMS 15 shipments
CUMMINS 13 shipments
CUMMINS JUAREZ FUEL SYSTEMS JFS R 7 shipments
CUMMINS SCANIA XPJ MANUFACTURING LL C RL372 2 shipments
HITACHI ASTEMO MEXICO SA DE CV 2 shipments
BROVEDANI MEXICO SA DE CV 1 shipments
CUMMINS JUAREZ FUEL SYSTEMS JSF 1 shipments
Shipments By HS Code
HS Code Shipments
981800 70 shipments
841590 Air conditioning machines; with motor driven fan and elements for temperature control, parts thereof 45 shipments
520812.0 Woven fabrics of cotton, containing 85% or more by weight of cotton, weighing not more than 200 g/m2 8 shipments
520812 Fabrics, woven; containing 85% or more by weight of cotton, unbleached, plain weave, weighing more than 100g/m2 but not more than 200g/m2 6 shipments
841590.0 Air conditioning machines; comprising a motor driven fan and elements for changing the temperature and humidity, including those machines in which the humidity cannot be separately regulated 4 shipments
401693 Rubber; vulcanised (other than hard rubber), gaskets, washers and other seals, of non-cellular rubber 3 shipments
870830 Vehicle parts; brakes, servo-brakes and parts thereof 2 shipments
840910.0 Parts suitable for use solely or principally with the engines of heading no. 8407 or 8408 1 shipments
840999 Engines; parts for internal combustion piston engines (excluding spark-ignition) 1 shipments
870210 Vehicles; public transport type (carries 10 or more persons, including driver), with only compression-ignition internal combustion piston engine (diesel or semi-diesel), new or used 1 shipments
to show market analysis.
Similar Suppliers
to see more.
Latest Shipments
Arrival Date Bill Of Lading Consignee Weight HS Code Description
2026-07-20 BANQ1075876714 CUMMINS SCANIA XPJ MANUFACTURING LL C RL372 112.0 kg 520812 LOWER SHIM INV 2631000390
2026-07-14 BANQ1076000446 CUMMINS JUAREZ FUEL SYSTEMS JSF 90.0 kg 870210 LOWER SHIM: COMPONENT OF DIESEL ENGINE INJECTOR INV. XXXXXXXXXX PO XXXXXXXXX
2026-07-06 BANQ1075480378 CUMMINS SCANIA XPJ MANUFACTURING LL C RL372 200.0 kg 520812 LOWER SHIM INV 2631000347
2026-06-10 BANQ1074816115 CUMMINS JUAREZ FUEL SYSTEMS 113.0 kg 520812 LOWER SHIM INV 2631000287
2026-06-10 BANQ1074816365 CUMMINS JUAREZ FUEL SYSTEMS 200.0 kg 520812 LOWER SHIM INV 2631000293
2026-05-31 HLCUHAMQCBGXG3AA CUMMINS SCANIA XPI RL372 200.0 kg 840999 LOWER SHIM 1 PACKAGE ON 1 PALLET HS CODE 840999 LOWER SHIM
2026-05-10 TCQVS00279397 CUMMINS SCANIA XPI RL372 200.0 kg 520812 LOWER SHIM
2026-05-06 TCQVS00278859 CUMMINS JUAREZ FUEL SYSTEMS JFS R 94.0 kg 520812 LOWER SHIM
2026-04-14 TCQVS00278243 CUMMINS JUAREZ FUEL SYSTEMS JFS R 120.0 kg 520812.0 LOWER SHIM
2026-04-08 TCQVS00277725 CUMMINS SCANIA XPI RL372 194.0 kg 520812.0 LOWER SHIM
2026-03-25 TCQVS00277083 CUMMINS SCANIA XPI RL372 200.0 kg 520812.0 LOWER SHIM
2026-03-01 TCQVS00275704 CUMMINS SCANIA XPI RL372 200.0 kg 520812.0 LOWER SHIM
2026-03-01 TCQVS00275863 CUMMINS JUAREZ FUEL SYSTEMS JFS R 172.0 kg 520812.0 LOWER SHIM
2026-01-24 CSWAM25EXL47546 BROVEDANI MEXICO SA DE CV 616.0 kg 840910.0 SPARK-IGNITION INTERNAL COMBUSTION PISTON ENGINES PARTS
2026-01-13 TCQVS00274678 CUMMINS SCANIA XPI RL372 201.0 kg 520812.0 LOWER SHIM
2026-01-08 TCQVS00274117 CUMMINS SCANIA XPI RL372 194.0 kg 520812.0 LOWER SHIM
2025-11-16 TCQVS00272420 CUMMINS SCANIA XPI RL372 200.0 kg 520812.0 LOWER SHIM
2025-10-19 TCQVS00271387 CUMMINS SCANIA XPI RL372 321.0 kg 841590.0 AUTOMOTIVE PARTS
2025-09-27 TCQVS00270322 CUMMINS SCANIA XPI RL372 347.0 kg 841590.0 AUTOMOTIVE PARTS
2025-09-09 TCQVS00269182 CUMMINS SCANIA XPI RL372 400.0 kg 841590.0 AUTOMOTIVE PARTS
2025-09-09 TCQVS00269364 CUMMINS SCANIA XPI RL372 200.0 kg 841590.0 AUTOMOTIVE PARTS
2025-08-16 TCQVS00268536 CUMMINS SCANIA XPI RL372 200.0 kg 841590 AUTOMOTIVE PARTS
2025-08-09 TCQVS00268095 CUMMINS SCANIA XPI RL372 200.0 kg 841590 AUTOMOTIVE PARTS
2025-08-09 TCQVS00267822 CUMMINS SCANIA XPI RL372 200.0 kg 841590 AUTOMOTIVE PARTS
2025-08-02 TCQVS00267518 CUMMINS SCANIA XPI RL372 200.0 kg 841590 AUTOMOTIVE PARTS
2025-07-26 TCQVS00267189 CUMMINS SCANIA XPI RL372 200.0 kg 841590 AUTOMOTIVE PARTS
2025-07-19 TCQVS00266647 CUMMINS SCANIA XPI RL372 200.0 kg 841590 AUTOMOTIVE PARTS
2025-07-06 TCQVS00265941 CUMMINS SCANIA XPI RL372 200.0 kg 841590 AUTOMOTIVE PARTS
2025-06-14 TCQVS00265172 CUMMINS SCANIA XPI RL372 200.0 kg 841590 AUTOMOTIVE PARTS
2025-06-14 TCQVS00264824 CUMMINS SCANIA XPI RL372 174.0 kg 841590 AUTOMOTIVE PARTS
2025-05-18 TCQVS00263568 CUMMINS SCANIA XPI RL372 200.0 kg 841590 AUTOMOTIVE PARTS
2025-05-03 TCQVS00262504 CUMMINS SCANIA XPI RL372 200.0 kg 841590 AUTOMOTIVE PARTS
2025-04-26 TCQVS00262157 CUMMINS SCANIA XPI RL372 200.0 kg 841590 AUTOMOTIVE PARTS
2025-04-13 TCQVS00261457 CUMMINS SCANIA XPI RL372 174.0 kg 841590 AUTOMOTIVE PARTS
2025-04-05 TCQVS00261018 CUMMINS SCANIA XPI RL372 200.0 kg 841590 AUTOMOTIVE PARTS
2025-03-30 TCQVS00260457 CUMMINS SCANIA XPI RL372 200.0 kg 841590 AUTOMOTIVE PARTS
2025-03-14 TCQVS00258382 CUMMINS SCANIA XPI RL372 200.0 kg 841590 AUTOMOTIVE PARTS
2025-03-11 TCQVS00259321 CUMMINS SCANIA XPI RL372 200.0 kg 841590 AUTOMOTIVE PARTS
2025-02-09 TCQVS00257093 CUMMINS SCANIA XPI RL372 200.0 kg 841590 AUTOMOTIVE PARTS
2025-01-26 TCQVS00256657 CUMMINS SCANIA XPI RL372 200.0 kg 841590 AUTOMOTIVE PARTS
2025-01-12 TCQVS00256015 CUMMINS SCANIA XPI RL372 314.0 kg 841590 AUTOMOTIVE PARTS
2025-01-12 TCQVS00256084 CUMMINS JUAREZ FUEL SYSTEMS JFS R 168.0 kg 841590 AUTOMOTIVE PARTS
2024-12-29 TCQVS00255501 CUMMINS SCANIA XPI RL372 200.0 kg 841590 AUTOMOTIVE PARTS
2024-12-16 TCQVS00254691 CUMMINS SCANIA XPI RL372 200.0 kg 841590 AUTOMOTIVE PARTS
2024-12-03 TCQVS00253923 CUMMINS SCANIA XPI RL372 200.0 kg 841590 AUTOMOTIVE PARTS
2024-12-03 TCQVS00254441 CUMMINS SCANIA XPI RL372 200.0 kg 841590 AUTOMOTIVE PARTS
2024-11-27 TCQVS00253562 CUMMINS SCANIA XPI RL372 400.0 kg 841590 AUTOMOTIVE PARTS
2024-11-06 TCQVS00252858 CUMMINS SCANIA XPI RL372 400.0 kg 841590 AUTOMOTIVE PARTS
2024-10-28 TCQVS00252522 CUMMINS SCANIA XPI RL372 200.0 kg 841590 AUTOMOTIVE PARTS
2024-10-28 TCQVS00252435 CUMMINS JUAREZ FUEL SYSTEMS JFS R 145.0 kg 841590 AUTOMOTIVE PARTS
Contact information Request
to request contact information.
Other address
VIA GEMONA 3
VIA VENZONE 9 SAN VITO AL TAGLIAMENTO 33078 IT
IA VENZONE 9/11
VIA GEMONA 3 33078 SAN VITO AL TAGLIAMENTO PN ITALY
Z I PONTE ROSSO VIA VENZONE 9
Z I PONTE ROSSO VIA VENZONE 9 S VITO AL-